STARLINK-33600 (62772 NORAD) Tracking and Keplerian Element Data

This shows tracking and keplerian element data for the satellite.

Feedback or suggestion? Click here.




ElementValue
Catalog62772
NameSTARLINK-33600
Epoch Orbit340
Epoch Day35.25001157
Epoch Year2025
RAAN18.6572
Inclination53.1599
Eccentricity0.000112
Argument of Perigee75.4606
Mean Anonmoly210.6639
Mean Motion15.78410626
Decay Rate-0.0107737
L11 62772U 25015Q 25035.25001157 -.01077370 00000+0 -67879-2 0 9998
L22 62772 53.1599 18.6572 0001120 75.4606 210.6639 15.78410626 3403



Live tracking and technical data element details for STARLINK-33600 (NORAD 62772). STARLINK-33600 can be tracked NOW for your location showing map with azimuth and elevation plus other details from your city location.







IsCatalogInMostPopularTable: catalog: 62772, numindb: 3
Update: records affected: 1



GetName: 62772 STARLINK-33600

Hit Count: updated at: Sun, 09 Feb 2025 14:36:27 GMT